TimeGMT,TemperatureF,Dew PointF,Humidity,Sea Level PressureIn,VisibilityMPH,Wind Direction,Wind SpeedMPH,Gust SpeedMPH,PrecipitationIn,Events,Conditions,WindDirDegrees,DateUTC
12:00 AM,36,35,93,29.69,,North,8.9,,,,,350,2012-11-26 00:00:00
6:00 AM,41,39,89,29.78,19,North,11.2,,,Rain,Light Rain Showers,350,2012-11-26 06:00:00
6:00 AM,41.0,39.2,93,29.74,6.2,North,11.5,-,N/A,,Scattered Clouds,350,2012-11-26 06:00:00
6:30 AM,39.2,39.2,100,29.77,6.2,North,8.1,-,N/A,,Scattered Clouds,350,2012-11-26 06:30:00
7:00 AM,41.0,37.4,87,29.77,6.2,North,9.2,-,N/A,Rain,Light Rain Showers,350,2012-11-26 07:00:00
7:30 AM,41.0,39.2,93,29.77,6.2,North,9.2,-,N/A,,Mostly Cloudy,350,2012-11-26 07:30:00
8:00 AM,41.0,39.2,93,29.80,6.2,NNW,13.8,27.6,N/A,Rain,Light Rain Showers,340,2012-11-26 08:00:00
8:30 AM,41.0,39.2,93,29.80,5.6,North,20.7,34.5,N/A,Rain,Light Rain Showers,350,2012-11-26 08:30:00
9:00 AM,41.0,39.2,93,29.83,6.2,North,13.8,-,N/A,,Mostly Cloudy,350,2012-11-26 09:00:00
9:30 AM,42.8,41.0,93,29.83,5.6,North,16.1,27.6,N/A,,Mostly Cloudy,350,2012-11-26 09:30:00
10:00 AM,41.0,41.0,100,29.86,6.2,North,23.0,46.0,N/A,Rain,Light Rain Showers,350,2012-11-26 10:00:00
10:30 AM,41.0,41.0,100,29.86,6.2,North,11.5,-,N/A,Rain,Light Rain Showers,360,2012-11-26 10:30:00
11:00 AM,41.0,41.0,100,29.86,6.2,North,15.0,-,N/A,,Mostly Cloudy,350,2012-11-26 11:00:00
11:30 AM,41.0,39.2,93,29.89,6.2,North,13.8,-,N/A,Rain,Light Rain Showers,350,2012-11-26 11:30:00
12:00 PM,42,40,88,29.91,4,North,15.7,,,Rain,Light Rain Showers,350,2012-11-26 12:00:00
12:00 PM,42.8,39.2,87,29.89,4.3,North,16.1,29.9,N/A,Rain,Light Rain Showers,350,2012-11-26 12:00:00
12:30 PM,42.8,39.2,87,29.89,6.2,NNW,20.7,32.2,N/A,,Partly Cloudy,340,2012-11-26 12:30:00
1:00 PM,44.6,39.2,81,29.89,5.6,NNW,19.6,32.2,N/A,Rain,Light Rain Showers,340,2012-11-26 13:00:00
1:30 PM,44.6,39.2,81,29.89,6.2,NNW,23.0,-,N/A,,Scattered Clouds,340,2012-11-26 13:30:00
2:00 PM,42.8,39.2,87,29.89,6.2,NNW,21.9,38.0,N/A,,Partly Cloudy,340,2012-11-26 14:00:00
2:30 PM,42.8,37.4,81,29.89,6.2,NNW,19.6,-,N/A,,Partly Cloudy,340,2012-11-26 14:30:00
3:00 PM,42.8,37.4,81,29.89,6.2,NNW,18.4,31.1,N/A,,Partly Cloudy,340,2012-11-26 15:00:00
3:30 PM,42.8,39.2,87,29.92,6.2,NNW,16.1,-,N/A,,Partly Cloudy,340,2012-11-26 15:30:00
4:00 PM,42.8,39.2,87,29.92,6.2,NNW,13.8,-,N/A,Rain,Light Rain Showers,330,2012-11-26 16:00:00
4:30 PM,42.8,37.4,81,29.95,6.2,NNW,16.1,-,N/A,,Scattered Clouds,340,2012-11-26 16:30:00
5:00 PM,41.0,37.4,87,29.95,6.2,NNW,13.8,-,N/A,,Scattered Clouds,330,2012-11-26 17:00:00
6:00 PM,40,37,84,29.99,16,NNW,15.7,,,,Partly Cloudy,330,2012-11-26 18:00:00